Location: Limoges
(45.8354°N, 1.2645°E)
Time: 09:43:31
(UTC+01:00)

Courier 1B - All Passes

Search period start: 25 February 2024 00:00
Search period end: 06 March 2024 00:00
Orbit: 962 x 1209 km, 28.3° (Epoch: 24 February)

Date Brightness Start Highest point End Pass type
(mag) Time Alt. Az. Time Alt. Az. Time Alt. Az.
25 Feb - 01:28:57 10° SSW 01:31:46 13° SSE 01:34:34 10° SE night (unlit)
25 Feb - 03:20:43 10° SW 03:24:30 16° S 03:28:21 10° SE visible
25 Feb - 05:15:12 10° SW 05:17:16 11° SSW 05:19:20 10° S visible
26 Feb - 00:36:31 10° S 00:38:18 11° SSE 00:40:04 10° SSE night (unlit)
26 Feb - 02:27:17 10° SW 02:31:01 16° S 02:34:47 10° SE night (unlit)
26 Feb - 04:20:54 10° SW 04:23:46 13° SSW 04:26:41 10° SSE visible
27 Feb - 01:33:56 10° SSW 01:37:32 15° S 01:41:07 10° SE night (unlit)
27 Feb - 03:26:58 10° SW 03:30:18 14° S 03:33:39 10° SSE night (unlit)
28 Feb - 00:40:45 10° SSW 00:44:03 14° S 00:47:20 10° SE night (unlit)
28 Feb - 02:33:13 10° SW 02:36:49 15° S 02:40:26 10° SSE night (unlit)
28 Feb - 23:47:46 10° SSW 23:50:35 13° SSE 23:53:21 10° SE night (unlit)
29 Feb - 01:39:35 10° SW 01:43:20 16° S 01:47:04 10° SE night (unlit)
29 Feb - 03:34:11 10° SSW 03:36:03 11° SSW 03:37:56 10° S night (unlit)
29 Feb - 22:55:12 10° S 22:57:06 11° SSE 22:58:59 10° SSE night (unlit)
01 Mar - 00:46:03 10° SW 00:49:51 16° S 00:53:36 10° SE night (unlit)
01 Mar - 02:39:45 10° SW 02:42:35 13° SSW 02:45:25 10° SSE night (unlit)
01 Mar - 23:52:37 10° SSW 23:56:21 16° S 00:00:02 10° SE night (unlit)
02 Mar - 01:45:43 10° SW 01:49:07 15° S 01:52:30 10° SSE night (unlit)
02 Mar - 22:59:18 10° SSW 23:02:51 15° S 23:06:20 10° SE night (unlit)
03 Mar - 00:51:52 10° SW 00:55:39 16° S 00:59:22 10° SSE night (unlit)
03 Mar - 22:06:11 10° SSW 22:09:20 14° SSE 22:12:26 10° SE visible
03 Mar - 23:58:08 10° SW 00:02:09 17° S 00:06:04 10° SE night (unlit)
04 Mar - 01:52:40 10° SW 01:54:52 12° SSW 01:57:03 10° S night (unlit)
04 Mar - 21:13:25 10° S 21:15:49 12° SSE 21:18:11 10° SE visible
04 Mar - 23:04:29 10° SW 23:08:38 17° S 23:12:40 10° SE night (unlit)
05 Mar - 00:58:14 10° SW 01:01:24 14° SSW 01:04:33 10° SSE night (unlit)
05 Mar - 22:10:57 10° SSW 22:15:06 17° S 22:19:07 10° SE visible
